Regional Weather Roundup
Issued by NWS

Home | Current Version | Previous Version | Text Only | Print | Product List | Glossary On
Versions: 1 2 3 4 5 6 7 8 9 10 11 12 13 14 15 16 17 18 19 20 21 22 23 24 25 26 27 28 29 30 31 32 33 34 35 36 37 38 39 40 41 42 43 44 45 46 47 48 49 50
000
ASUS43 KLSX 311607
RWRMO

WEATHER SUMMARY FOR MISSOURI
NATIONAL WEATHER SERVICE SPRINGFIELD MO
1000 AM CST SAT JAN 31 2015

NOTE: "FAIR" INDICATES FEW OR NO CLOUDS BELOW 12,000 FEET WITH NO
       SIGNIFICANT WEATHER AND/OR OBSTRUCTIONS TO VISIBILITY.
       CURRENT SKY AND/OR WEATHER CONDITIONS ARE NOT AVAILABLE FOR
       CHILLICOTHE AND FARMINGTON.

MOZ001>031-035>038-043-044-053-054-311700-
...NORTHERN AND WESTERN MISSOURI...

CITY           SKY/WX    TMP DP  RH WIND       PRES   REMARKS
KANSAS CTY INT RAIN      36  36 100 SE8       30.22F FOG     WCI  30
KANSAS C DTWN  LGT RAIN  37  36  96 E8        30.23F
LEE`S SUMMIT   RAIN      35  33  92 SE7       30.25S FOG     WCI  29
ST JOSEPH      LGT RAIN  36  35  96 CALM      30.22F FOG
CHILLICOTHE      N/A     35  33  92 CALM      30.26F
KIRKSVILLE     MIX PCPN  32  31  96 SW6       30.26F FOG     WCI  26

$$
MOZ066>068-077>081-088>096-101>105-311700-
...SOUTHWEST MISSOURI...

CITY           SKY/WX    TMP DP  RH WIND       PRES   REMARKS
SPRINGFIELD    CLOUDY    40  25  55 SE10      30.25F
JOPLIN         CLOUDY    43  25  49 SE7       30.24F

$$
MOZ032>034-039>042-045>050-055>058-069>072-311700-
...CENTRAL MISSOURI...

CITY           SKY/WX    TMP DP  RH WIND       PRES   REMARKS
COLUMBIA       CLOUDY    37  24  59 S8        30.30S
JEFFERSON CITY CLOUDY    37  24  59 E3        30.32R
ROLLA          CLOUDY    38  25  59 S9        30.28F
SEDALIA        MIX PCPN  37  32  82 S6        30.29F
WHITEMAN AFB   LGT RAIN  35  32  89 S7        30.27F WCI  29
OSAGE BEACH    CLOUDY    39  21  48 S5        30.30R

$$
MOZ051-052-059>065-311700-
...EAST CENTRAL MISSOURI...

CITY           SKY/WX    TMP DP  RH WIND       PRES   REMARKS
ST LOUIS INTL  CLOUDY    40  23  50 SW7       30.33S
SPIRIT OF STL  CLOUDY    39  25  57 CALM      30.33S
ST CHARLES     CLOUDY    33  26  75 CALM      30.33F

$$
MOZ072>076-082>087-097>100-106>115-311700-
...SOUTH CENTRAL AND SOUTHEAST MISSOURI...

CITY           SKY/WX    TMP DP  RH WIND       PRES   REMARKS
CAPE GIRARDEAU CLOUDY    37  27  67 S8        30.40R
FARMINGTON     CLOUDY    37  23  56 S9        30.37S
POPLAR BLUFF   CLOUDY    35  28  75 E3        30.38S
WEST PLAINS    CLOUDY    36  25  64 SE6       30.29F

$$



USA.gov is the U.S. government's official web portal to all federal, state and local government web resources and services.